Location: Unspecified
(38.7273°N, 77.0677°W)
Time: 22:26:08
(UTC-04:00)

CAS-4B - Pass Details

Date: 26 September 2021
Orbit: 528 x 541 km, 43.0° (Epoch: 27 October)

Event Time Altitude Azimuth Distance (km) Brightness Sun altitude
Exits shadow 04:21:58 25° 60° (ENE) 1,101 ? -30.7°
Drops below altitude 10° 04:23:44 10° 67° (ENE) 1,769 ? -30.4°
Sets 04:25:59 0° 70° (ENE) 2,660 ? -30.0°
